This demonstration page uses our WeatherBlox Daily Observations layout. Learn more.

Left ArrowRight Arrow

40.92945, -100.16068

Hourly Observations for July 21, 2020

Temp ( °F °C ) Dew Point ( °F °C ) Humidity (%) Winds ( mph kmh ) Pressure ( in mb ) Visibility ( mi km ) Precip ( " mm )
12:15 am 00:15 Clear 68 20.1 59 14.9 72 72 N 18 30 29.92 1013 10 16.0934 0 0
12:35 am 00:35 Clear 68 19.8 59 15 74 74 NNE 20 31 29.9 1013 10 16.0934 0 0
12:55 am 00:55 Clear 67 19.2 61 15.9 81 81 NE 17 28 29.9 1012 10 16.0934 0 0
1:15 am 01:15 Clear 65 18.6 61 16 85 85 NE 17 28 29.89 1012 10 16.0934 0 0
1:35 am 01:35 Clear 65 18.3 61 16 87 87 NE 17 28 29.89 1012 10 16.0934 0 0
1:55 am 01:55 Clear 65 18.5 60 15.8 84 84 ENE 13 20 29.9 1012 10 16.0934 0 0
2:15 am 02:15 Clear 66 19 59 15.1 78 78 E 13 20 29.9 1013 10 16.0934 0 0
2:35 am 02:35 Clear 65 18.6 59 15.1 80 80 ESE 9 15 29.91 1013 10 16.0934 0 0
2:55 am 02:55 Clear 65 18.6 60 15.5 82 82 ESE 8 13 29.91 1013 10 16.0934 0 0
3:15 am 03:15 Clear 65 18.5 60 15.7 84 84 ESE 9 15 29.91 1013 10 16.0934 0 0
3:35 am 03:35 Clear 65 18.2 61 16 87 87 SE 6 9 29.9 1012 10 16.0934 0 0
3:55 am 03:55 Clear 64 17.9 62 16.5 92 92 SSE 5 7 29.9 1013 10 16.0934 0 0
4:15 am 04:15 Clear 63 17.4 62 16.5 94 94 SW 6 9 29.9 1013 10 16.0934 0 0
4:35 am 04:35 Clear 63 17.2 62 16.5 96 96 W 7 11 29.9 1012 10 16.0934 0 0
4:55 am 04:55 Clear 63 17 62 16.5 97 97 NNW 15 24 29.94 1014 10 16.0934 0 0
5:15 am 05:15 Partly Cloudy 63 17.2 60 15.8 92 92 NNW 10 17 29.96 1014 10 16.0934 0 0
5:35 am 05:35 Clear 62 16.8 60 15.5 92 92 NNW 7 11 29.97 1015 10 16.0934 0 0
5:55 am 05:55 Clear 62 16.5 60 15.3 93 93 NW 5 7 29.98 1015 10 16.0934 0 0
6:15 am 06:15 Clear 61 16 59 15 94 94 WNW 5 7 29.99 1015 10 16.0934 0 0
6:35 am 06:35 Sunny 60 15.6 59 14.8 95 95 WNW 6 9 29.99 1016 10 16.0934 0 0
6:55 am 06:55 Sunny 60 15.5 58 14.6 94 94 NW 6 9 30 1016 10 16.0934 0 0
7:15 am 07:15 Sunny 60 15.6 58 14.6 94 94 WNW 7 11 29.99 1016 10 16.0934 0 0
7:35 am 07:35 Sunny 61 16.2 59 15 93 93 WNW 7 11 30 1016 10 16.0934 0 0
7:55 am 07:55 Sunny 63 17.1 60 15.5 90 90 WNW 8 13 30 1016 10 16.0934 0 0
8:15 am 08:15 Sunny 64 18 61 16 88 88 NW 8 13 29.99 1016 10 16.0934 0 0
8:35 am 08:35 Sunny 67 19.3 62 16.4 83 83 NW 8 13 29.98 1015 10 16.0934 0 0
8:55 am 08:55 Sunny 68 20.2 62 16.7 80 80 NW 9 15 29.98 1015 10 16.0934 0 0
9:15 am 09:15 Sunny 69 20.8 62 16.9 78 78 NW 8 13 29.97 1015 10 16.0934 0 0
9:35 am 09:35 Sunny 72 22 64 17.7 77 77 NNW 7 11 29.95 1014 10 16.0934 0 0
9:55 am 09:55 Sunny 74 23.5 66 18.8 75 75 N 6 9 29.93 1014 10 16.0934 0 0
10:15 am 10:15 Sunny 76 24.6 65 18.6 69 69 N 10 17 29.92 1013 10 16.0934 0 0
10:35 am 10:35 Sunny 77 25.1 65 18.5 67 67 NNE 14 22 29.92 1013 10 16.0934 0 0
10:55 am 10:55 Sunny 78 25.7 67 19.4 68 68 NNE 12 19 29.91 1013 10 16.0934 0 0
11:15 am 11:15 Sunny 78 25.8 66 18.7 65 65 NNE 10 17 29.91 1013 10 16.0934 0 0
11:35 am 11:35 Sunny 80 26.4 66 18.8 63 63 NE 13 20 29.91 1013 10 16.0934 0 0
11:55 am 11:55 Sunny 80 26.7 65 18.6 61 61 NNE 8 13 29.91 1013 10 16.0934 0 0
12:15 pm 12:15 Sunny 80 26.9 65 18.3 59 59 NE 10 17 29.9 1013 10 16.0934 0 0
12:35 pm 12:35 Partly Cloudy 81 27.2 65 18.5 59 59 NE 9 15 29.9 1013 10 16.0934 0 0
12:55 pm 12:55 Partly Cloudy 81 27.4 64 17.9 56 56 NNE 7 11 29.9 1013 10 16.0934 0 0
1:15 pm 13:15 Partly Cloudy 81 27.4 64 17.5 55 55 ENE 8 13 29.89 1012 10 16.0934 0 0
1:35 pm 13:35 Partly Cloudy 82 27.7 63 17.3 53 53 ENE 10 17 29.89 1012 10 16.0934 0 0
1:55 pm 13:55 Mostly Cloudy 82 27.7 62 16.9 52 52 ENE 6 9 29.89 1012 10 16.0934 0 0
2:15 pm 14:15 Partly Cloudy 81 27.3 63 17.4 55 55 NE 8 13 29.89 1012 10 16.0934 0 0
2:35 pm 14:35 Mostly Cloudy 83 28.1 62 16.8 50 50 E 9 15 29.87 1012 10 16.0934 0 0
2:55 pm 14:55 Partly Cloudy 83 28.3 62 16.8 50 50 ENE 8 13 29.87 1012 10 16.0934 0 0
3:15 pm 15:15 Mostly Cloudy 83 28.4 62 16.7 49 49 ENE 9 15 29.87 1012 10 16.0934 0 0
3:35 pm 15:35 Mostly Cloudy 84 28.8 61 16.2 46 46 E 6 9 29.87 1011 10 16.0934 0 0
3:55 pm 15:55 Mostly Cloudy 82 28 61 16.2 49 49 ENE 6 9 29.88 1012 7 11.26538 0 0
4:15 pm 16:15 Hazy 84 28.9 62 16.7 48 48 ENE 8 13 29.86 1011 5 8.0467 0 0
4:35 pm 16:35 Mostly Cloudy with Haze 82 28 63 17.4 53 53 E 8 13 29.87 1011 4 6.43736 0 0
4:55 pm 16:55 Partly Cloudy 83 28.2 63 17.2 51 51 E 10 17 29.85 1011 10 16.0934 0 0
5:15 pm 17:15 Sunny 83 28.3 62 16.8 50 50 E 9 15 29.85 1011 10 16.0934 0 0
5:35 pm 17:35 Sunny 84 28.9 62 16.7 48 48 ESE 9 15 29.85 1011 10 16.0934 0 0
5:55 pm 17:55 Sunny 83 28.4 62 16.4 48 48 ESE 6 9 29.85 1011 10 16.0934 0 0
6:15 pm 18:15 Partly Cloudy 83 28.3 62 16.4 48 48 SE 6 9 29.85 1011 10 16.0934 0 0
6:35 pm 18:35 Sunny 83 28.3 61 16.3 48 48 E 7 11 29.84 1011 10 16.0934 0 0
6:55 pm 18:55 Sunny 83 28.2 62 16.4 49 49 ESE 8 13 29.84 1011 10 16.0934 0 0
7:15 pm 19:15 Sunny 82 27.9 62 16.4 50 50 E 7 11 29.85 1011 10 16.0934 0 0
7:35 pm 19:35 Sunny 82 27.7 61 16.3 50 50 E 8 13 29.85 1011 10 16.0934 0 0
7:55 pm 19:55 Sunny 81 27.3 61 16.3 51 51 ESE 8 13 29.86 1011 10 16.0934 0 0
8:15 pm 20:15 Sunny 80 26.7 62 16.6 54 54 ESE 6 9 29.87 1011 10 16.0934 0 0
8:35 pm 20:35 Sunny 78 25.8 63 17.3 59 59 SE 8 13 29.87 1012 10 16.0934 0 0
8:55 pm 20:55 Sunny 77 25.1 64 17.6 63 63 SE 6 9 29.89 1012 10 16.0934 0 0
9:15 pm 21:15 Clear 76 24.5 64 17.5 65 65 ESE 5 7 29.9 1013 10 16.0934 0 0
9:35 pm 21:35 Clear 76 24.3 64 17.7 67 67 ESE 6 9 29.92 1013 10 16.0934 0 0
9:55 pm 21:55 Clear 75 24 65 18.1 70 70 ESE 7 11 29.92 1013 10 16.0934 0 0
10:15 pm 22:15 Clear 74 23.6 65 18.2 72 72 ESE 8 13 29.92 1013 10 16.0934 0 0
10:35 pm 22:35 Clear 74 23.2 65 18.3 74 74 ESE 5 7 29.93 1014 10 16.0934 0 0
10:55 pm 22:55 Clear 73 22.9 65 18.3 75 75 SE 6 9 29.94 1014 10 16.0934 0 0
11:15 pm 23:15 Clear 73 22.6 65 18.5 78 78 ESE 6 9 29.94 1014 10 16.0934 0 0
11:35 pm 23:35 Clear 73 22.7 65 18.2 76 76 ESE 6 9 29.94 1014 10 16.0934 0 0
11:55 pm 23:55 Clear 72 22.2 65 18.2 78 78 SE 5 7 29.95 1014 10 16.0934 0 0

Powered by AerisWeather